GROUP/SHIP,CRUISE_DESIGNATION,JD_GMT,DATE_DDMMYYYY,TIME_HH:MM:SS,LAT_DEC_DEGREE,LONG_DEC_DEGREE,xCO2W_PPM,xCO2A_PPM,xCO2A_INTERPOLATED_PPM,PRES_EQUIL_hPa,PRES_SEALEVEL_hPa,EqTEMP_C,SST(TSG)_C,SAL(TSG)_PERMIL,fCO2W@SST_uATM,fCO2A_uATM,dfCO2_uATM,QC_FLAG,QC_SUBFLAG
AOML/SKOGAFOSS,SKO313,339.881,5122003,21:08:39,64.171,-22.188,-9,380.2,379.43,1027.8,-9,5.8,5.52,23.33,-9,380.67,-9,2,0
AOML/SKOGAFOSS,SKO313,339.883,5122003,21:11:55,64.168,-22.213,-9,379.04,379.43,1027.8,-9,5.72,5.47,22.83,-9,379.52,-9,2,0
AOML/SKOGAFOSS,SKO313,339.886,5122003,21:15:13,64.164,-22.245,-9,379.05,379.43,1027.7,-9,5.69,5.44,26.13,-9,379.51,-9,2,0
AOML/SKOGAFOSS,SKO313,339.888,5122003,21:19:04,64.163,-22.279,376.82,-9,379.4,1027.4,-9,5.7,5.49,26.01,373.74,379.74,-6,2,0
AOML/SKOGAFOSS,SKO313,339.892,5122003,21:25:03,64.155,-22.331,377.15,-9,379.37,1027.2,-9,5.71,5.51,25.07,374.23,379.64,-5.4,2,0
AOML/SKOGAFOSS,SKO313,339.897,5122003,21:31:02,64.15,-22.381,376.63,-9,379.35,1027.1,-9,5.69,5.48,26.41,373.56,379.58,-6.02,2,0
AOML/SKOGAFOSS,SKO313,339.901,5122003,21:37:01,64.146,-22.424,376.96,-9,379.32,1027,-9,5.65,5.45,26.33,374.02,379.53,-5.51,2,0
AOML/SKOGAFOSS,SKO313,339.905,5122003,21:42:59,64.14,-22.473,376.98,-9,379.3,1026.8,-9,5.83,5.66,25.79,374.42,379.39,-4.97,2,0
AOML/SKOGAFOSS,SKO313,339.909,5122003,21:48:58,64.134,-22.523,373.04,-9,379.27,1026.7,-9,6.04,5.88,26.96,370.45,379.28,-8.83,2,0
AOML/SKOGAFOSS,SKO313,339.913,5122003,21:54:57,64.129,-22.573,371.46,-9,379.24,1026.6,-9,6.14,5.98,26.79,368.95,379.2,-10.25,2,0
AOML/SKOGAFOSS,SKO313,339.917,5122003,22:00:56,64.122,-22.622,371.79,-9,379.22,1026.7,-9,6.13,5.99,26.71,369.48,379.21,-9.72,2,0
AOML/SKOGAFOSS,SKO313,339.921,5122003,22:06:55,64.114,-22.67,373.19,-9,379.19,1026.7,-9,6.07,5.91,26.61,370.66,379.2,-8.54,2,0
AOML/SKOGAFOSS,SKO313,339.926,5122003,22:12:53,64.107,-22.719,373.74,-9,379.17,1026.5,-9,6.17,6.03,26.91,371.34,379.07,-7.73,2,0
AOML/SKOGAFOSS,SKO313,339.93,5122003,22:18:52,64.097,-22.761,374.39,-9,379.14,1026.1,-9,6.15,6.01,28.36,371.96,378.91,-6.95,2,0
AOML/SKOGAFOSS,SKO313,339.934,5122003,22:24:51,64.083,-22.795,374.51,-9,379.11,1026.1,-9,6.2,6.04,28.7,371.67,378.87,-7.2,2,0
AOML/SKOGAFOSS,SKO313,339.938,5122003,22:30:50,64.069,-22.825,372.71,-9,379.09,1025.8,-9,6.4,6.27,28.69,370.2,378.69,-8.49,2,0
AOML/SKOGAFOSS,SKO313,339.942,5122003,22:36:49,64.055,-22.855,370.48,-9,379.06,1025.9,-9,6.48,6.34,28.75,367.94,378.68,-10.75,2,0
AOML/SKOGAFOSS,SKO313,339.946,5122003,22:42:47,64.04,-22.885,371.24,-9,379.04,1025.7,-9,6.72,6.59,28.81,368.59,378.53,-9.94,2,0
AOML/SKOGAFOSS,SKO313,339.951,5122003,22:48:46,64.026,-22.915,370.93,-9,379.01,1025.7,-9,7.08,6.95,28.63,368.47,378.42,-9.95,2,0
AOML/SKOGAFOSS,SKO313,339.955,5122003,22:54:45,64.012,-22.945,371.05,-9,378.98,1025.6,-9,6.99,6.87,28.88,368.45,378.38,-9.93,2,0
AOML/SKOGAFOSS,SKO313,339.959,5122003,23:00:44,63.997,-22.976,370.96,-9,378.96,1025.7,-9,7.1,6.96,28.89,368.27,378.37,-10.1,2,0
AOML/SKOGAFOSS,SKO313,339.963,5122003,23:06:43,63.982,-23.006,371.4,-9,378.93,1025.6,-9,7.42,7.29,28.8,368.73,378.23,-9.49,2,0
AOML/SKOGAFOSS,SKO313,339.967,5122003,23:12:41,63.967,-23.037,372.05,-9,378.91,1025.8,-9,7.47,7.34,28.64,369.49,378.26,-8.78,2,0
AOML/SKOGAFOSS,SKO313,339.974,5122003,23:22:07,63.946,-23.088,370.26,-9,378.87,1026,-9,7.41,7.25,28.91,367.35,378.31,-10.96,2,0
AOML/SKOGAFOSS,SKO313,339.978,5122003,23:28:06,63.932,-23.119,369.31,-9,378.84,1026.1,-9,7.39,7.25,28.91,366.62,378.33,-11.71,2,0
AOML/SKOGAFOSS,SKO313,339.982,5122003,23:34:05,63.918,-23.152,369.43,-9,378.81,1026.1,-9,7.46,7.37,28.65,367.5,378.28,-10.78,2,0
AOML/SKOGAFOSS,SKO313,339.986,5122003,23:40:03,63.904,-23.183,374.78,-9,378.79,1026.1,-9,7.78,7.67,28.73,372.51,378.18,-5.67,2,0
AOML/SKOGAFOSS,SKO313,339.99,5122003,23:46:02,63.89,-23.214,376.5,-9,378.76,1026,-9,7.81,7.67,28.74,373.64,378.11,-4.47,2,0
AOML/SKOGAFOSS,SKO313,339.994,5122003,23:52:01,63.878,-23.24,373.85,-9,378.74,1025.9,-9,7.68,7.53,28.72,370.86,378.08,-7.22,2,0
AOML/SKOGAFOSS,SKO313,339.999,5122003,23:58:00,63.864,-23.271,373.54,-9,378.71,1025.9,-9,7.67,7.51,28.72,370.48,378.05,-7.58,2,0
AOML/SKOGAFOSS,SKO313,340.003,6122003,0:03:59,63.859,-23.281,373.77,-9,378.68,1025.9,-9,7.69,7.53,28.71,370.64,378.02,-7.38,2,0
AOML/SKOGAFOSS,SKO313,340.007,6122003,0:09:59,63.848,-23.305,375.38,-9,378.66,1025.9,-9,7.85,7.14,35,363.63,377.96,-14.34,2,0
AOML/SKOGAFOSS,SKO313,340.011,6122003,0:15:58,63.836,-23.329,376.36,-9,378.63,1025.8,-9,7.91,7.2,35,364.5,377.88,-13.38,2,0
AOML/SKOGAFOSS,SKO313,340.015,6122003,0:21:57,63.825,-23.352,375.94,-9,378.61,1025.8,-9,7.88,7.17,35,364.12,377.86,-13.75,2,0
AOML/SKOGAFOSS,SKO313,340.019,6122003,0:27:56,63.814,-23.376,375.74,-9,378.58,1025.8,-9,7.87,7.16,35,363.93,377.84,-13.91,2,0
AOML/SKOGAFOSS,SKO313,340.024,6122003,0:33:55,63.802,-23.4,375.65,-9,378.55,1025.8,-9,7.86,7.15,35,363.84,377.82,-13.98,2,0
AOML/SKOGAFOSS,SKO313,340.028,6122003,0:39:53,63.791,-23.424,376.09,-9,378.53,1025.9,-9,7.89,7.18,35,364.29,377.82,-13.53,2,0
AOML/SKOGAFOSS,SKO313,340.032,6122003,0:45:52,63.779,-23.447,377.39,-9,378.5,1025.7,-9,7.92,7.21,35,365.45,377.71,-12.26,2,0
AOML/SKOGAFOSS,SKO313,340.036,6122003,0:51:51,63.768,-23.471,377.61,-9,378.48,1025.7,-9,7.93,7.22,35,365.67,377.69,-12.02,2,0
AOML/SKOGAFOSS,SKO313,340.04,6122003,0:57:50,63.756,-23.495,379.02,-9,378.45,1025.6,-9,8.03,7.31,35,366.93,377.6,-10.67,2,0
AOML/SKOGAFOSS,SKO313,340.044,6122003,1:03:49,63.745,-23.519,379.78,-9,378.42,1025.4,-9,8.05,7.33,35,367.58,377.49,-9.91,2,0
AOML/SKOGAFOSS,SKO313,340.048,6122003,1:09:47,63.734,-23.542,379.9,-9,378.4,1025.4,-9,8.04,7.32,35,367.71,377.47,-9.76,2,0
AOML/SKOGAFOSS,SKO313,340.053,6122003,1:15:46,63.722,-23.566,379.91,-9,378.37,1025.4,-9,8.03,7.31,35,367.73,377.45,-9.72,2,0
AOML/SKOGAFOSS,SKO313,340.066,6122003,1:35:04,63.665,-23.685,-9,378.21,378.27,1025.2,-9,8.02,7.3,35,-9,377.23,-9,2,0
AOML/SKOGAFOSS,SKO313,340.068,6122003,1:38:21,63.653,-23.709,-9,378.31,378.27,1025.2,-9,7.91,7.2,35,-9,377.35,-9,2,0
AOML/SKOGAFOSS,SKO313,340.071,6122003,1:41:38,63.642,-23.733,-9,378.3,378.27,1025.1,-9,7.89,7.18,35,-9,377.32,-9,2,0
AOML/SKOGAFOSS,SKO313,340.073,6122003,1:45:29,63.631,-23.756,377.98,-9,378.28,1025,-9,8,7.29,35,365.73,377.22,-11.49,2,0
AOML/SKOGAFOSS,SKO313,340.08,6122003,1:54:55,63.608,-23.804,379.03,-9,378.3,1025,-9,8.08,7.36,35,366.7,377.21,-10.51,2,0
AOML/SKOGAFOSS,SKO313,340.093,6122003,2:14:13,63.551,-23.923,-9,378.26,378.33,1025,-9,8.12,7.4,35,-9,377.18,-9,2,0
AOML/SKOGAFOSS,SKO313,340.095,6122003,2:17:30,63.539,-23.947,-9,378.36,378.33,1025,-9,8.16,7.44,35,-9,377.27,-9,2,0
AOML/SKOGAFOSS,SKO313,340.098,6122003,2:20:47,63.528,-23.97,-9,378.36,378.33,1025,-9,8.16,7.44,35,-9,377.27,-9,2,0
AOML/SKOGAFOSS,SKO313,340.1,6122003,2:24:37,63.516,-23.994,381.13,-9,378.31,1024.8,-9,8.16,7.44,35,368.62,377.13,-8.51,2,0
AOML/SKOGAFOSS,SKO313,340.107,6122003,2:34:03,63.493,-24.042,381.34,-9,378.29,1024.8,-9,8.17,7.45,35,368.81,377.11,-8.3,2,0
AOML/SKOGAFOSS,SKO313,340.12,6122003,2:53:21,63.436,-24.16,-9,378.21,378.24,1024.8,-9,8.15,7.43,35,-9,377.05,-9,2,0
AOML/SKOGAFOSS,SKO313,340.123,6122003,2:56:38,63.425,-24.184,-9,378.2,378.24,1024.8,-9,8.16,7.44,35,-9,377.04,-9,2,0
AOML/SKOGAFOSS,SKO313,340.125,6122003,2:59:55,63.413,-24.208,-9,378.31,378.24,1024.7,-9,8.15,7.43,35,-9,377.11,-9,2,0
AOML/SKOGAFOSS,SKO313,340.128,6122003,3:03:45,63.402,-24.232,380.86,-9,378.23,1024.8,-9,8.14,7.42,35,368.37,377.05,-8.68,2,0
AOML/SKOGAFOSS,SKO313,340.134,6122003,3:13:11,63.379,-24.279,382.99,-9,378.21,1024.5,-9,8.25,7.53,35,370.24,376.9,-6.65,2,0
AOML/SKOGAFOSS,SKO313,340.148,6122003,3:32:29,63.322,-24.398,-9,378.17,378.17,1024.6,-9,8.28,7.56,35,-9,376.9,-9,2,0
AOML/SKOGAFOSS,SKO313,340.15,6122003,3:35:46,63.31,-24.422,-9,378.17,378.17,1024.6,-9,8.27,7.55,35,-9,376.9,-9,2,0
AOML/SKOGAFOSS,SKO313,340.152,6122003,3:39:03,63.299,-24.446,-9,378.17,378.17,1024.6,-9,8.28,7.56,35,-9,376.9,-9,2,0
AOML/SKOGAFOSS,SKO313,340.155,6122003,3:42:54,63.287,-24.469,385.53,-9,378.16,1024.7,-9,8.32,7.6,35,372.74,376.91,-4.17,2,0
AOML/SKOGAFOSS,SKO313,340.161,6122003,3:52:19,63.265,-24.517,387.56,-9,378.16,1024.6,-9,8.33,7.61,35,374.66,376.86,-2.21,2,0
AOML/SKOGAFOSS,SKO313,340.175,6122003,4:12:33,63.207,-24.636,-9,378.08,378.15,1024.5,-9,8.35,7.63,35,-9,376.75,-9,2,0
AOML/SKOGAFOSS,SKO313,340.178,6122003,4:15:50,63.196,-24.66,-9,378.19,378.15,1024.6,-9,8.33,7.61,35,-9,376.91,-9,2,0
AOML/SKOGAFOSS,SKO313,340.18,6122003,4:19:07,63.185,-24.683,-9,378.19,378.15,1024.6,-9,8.37,7.65,35,-9,376.9,-9,2,0
AOML/SKOGAFOSS,SKO313,340.183,6122003,4:22:58,63.173,-24.707,388.23,-9,378.19,1024.4,-9,8.34,7.62,35,375.22,376.81,-1.59,2,0
AOML/SKOGAFOSS,SKO313,340.187,6122003,4:28:57,63.162,-24.731,387.81,-9,378.21,1024.6,-9,8.32,7.6,35,374.9,376.92,-2.01,2,0
AOML/SKOGAFOSS,SKO313,340.191,6122003,4:34:55,63.15,-24.755,387.93,-9,378.24,1024.6,-9,8.34,7.62,35,375,376.94,-1.94,2,0
AOML/SKOGAFOSS,SKO313,340.195,6122003,4:40:54,63.139,-24.778,388.26,-9,378.26,1024.6,-9,8.34,7.62,35,375.32,376.97,-1.64,2,0
AOML/SKOGAFOSS,SKO313,340.199,6122003,4:46:53,63.127,-24.802,389.76,-9,378.29,1024.5,-9,8.37,7.65,35,376.72,376.95,-0.23,2,0
AOML/SKOGAFOSS,SKO313,340.203,6122003,4:52:52,63.116,-24.826,389.77,-9,378.32,1024.4,-9,8.38,7.66,35,376.69,376.93,-0.25,2,0
AOML/SKOGAFOSS,SKO313,340.208,6122003,4:58:51,63.104,-24.85,389.99,-9,378.34,1024.6,-9,8.37,7.65,35,376.98,377.04,-0.06,2,0
AOML/SKOGAFOSS,SKO313,340.212,6122003,5:04:49,63.093,-24.874,389.25,-9,378.37,1024.7,-9,8.26,7.54,35,376.37,377.13,-0.76,2,0
AOML/SKOGAFOSS,SKO313,340.216,6122003,5:10:48,63.082,-24.897,389.69,-9,378.4,1024.6,-9,8.36,7.64,35,376.7,377.09,-0.4,2,0
AOML/SKOGAFOSS,SKO313,340.22,6122003,5:16:47,63.07,-24.921,389.91,-9,378.42,1024.7,-9,8.4,7.68,35,376.92,377.14,-0.22,2,0
AOML/SKOGAFOSS,SKO313,340.224,6122003,5:22:46,63.059,-24.945,389.71,-9,378.45,1024.8,-9,8.39,7.67,35,376.77,377.21,-0.44,2,0
AOML/SKOGAFOSS,SKO313,340.228,6122003,5:28:45,63.047,-24.969,389.72,-9,378.48,1024.8,-9,8.39,7.67,35,376.78,377.24,-0.46,2,0
AOML/SKOGAFOSS,SKO313,340.232,6122003,5:34:43,63.036,-24.992,390.79,-9,378.5,1025,-9,8.36,7.64,35,377.91,377.34,0.57,2,0
AOML/SKOGAFOSS,SKO313,340.237,6122003,5:40:42,63.024,-25.016,389.63,-9,378.53,1024.9,-9,8.38,7.66,35,376.74,377.33,-0.59,2,0
AOML/SKOGAFOSS,SKO313,340.241,6122003,5:46:41,63.013,-25.04,389.1,-9,378.55,1025.1,-9,8.39,7.67,35,376.3,377.43,-1.13,2,0
AOML/SKOGAFOSS,SKO313,340.245,6122003,5:52:40,63.002,-25.064,389.54,-9,378.58,1025,-9,8.3,7.58,35,376.74,377.44,-0.7,2,0
AOML/SKOGAFOSS,SKO313,340.249,6122003,5:58:39,62.99,-25.087,390.19,-9,378.61,1025,-9,8.36,7.64,35,377.33,377.45,-0.12,2,0
AOML/SKOGAFOSS,SKO313,340.253,6122003,6:04:37,62.979,-25.111,387.74,-9,378.63,1025.1,-9,8.36,7.64,35,375,377.51,-2.51,2,0
AOML/SKOGAFOSS,SKO313,340.257,6122003,6:10:36,62.967,-25.135,386.9,-9,378.66,1025.1,-9,8.35,7.63,35,374.19,377.54,-3.35,2,0
AOML/SKOGAFOSS,SKO313,340.262,6122003,6:16:35,62.956,-25.159,389.47,-9,378.69,1025.4,-9,8.38,7.66,35,376.77,377.67,-0.9,2,0
AOML/SKOGAFOSS,SKO313,340.268,6122003,6:26:01,62.933,-25.206,386.92,-9,378.73,1025.2,-9,8.37,7.65,35,374.24,377.64,-3.41,2,0
AOML/SKOGAFOSS,SKO313,340.272,6122003,6:31:59,62.921,-25.23,385.86,-9,378.75,1025.4,-9,8.38,7.66,35,373.28,377.74,-4.46,2,0
AOML/SKOGAFOSS,SKO313,340.276,6122003,6:37:58,62.91,-25.254,386.19,-9,378.78,1025.4,-9,8.37,7.65,35,373.6,377.77,-4.17,2,0
AOML/SKOGAFOSS,SKO313,340.281,6122003,6:43:57,62.899,-25.278,386.1,-9,378.81,1025.4,-9,8.36,7.64,35,373.52,377.8,-4.28,2,0
AOML/SKOGAFOSS,SKO313,340.285,6122003,6:49:56,62.887,-25.301,386.85,-9,378.83,1025.3,-9,8.39,7.67,35,374.19,377.78,-3.59,2,0
AOML/SKOGAFOSS,SKO313,340.289,6122003,6:55:55,62.876,-25.325,387.08,-9,378.86,1025.4,-9,8.38,7.66,35,374.45,377.85,-3.39,2,0
AOML/SKOGAFOSS,SKO313,340.293,6122003,7:01:53,62.864,-25.349,387.19,-9,378.89,1025.4,-9,8.36,7.64,35,374.58,377.88,-3.3,2,0
AOML/SKOGAFOSS,SKO313,340.297,6122003,7:07:52,62.853,-25.373,387.84,-9,378.91,1025.2,-9,8.4,7.68,35,375.11,377.82,-2.71,2,0
AOML/SKOGAFOSS,SKO313,340.301,6122003,7:13:51,62.841,-25.396,387.53,-9,378.94,1025.2,-9,8.39,7.67,35,374.81,377.85,-3.04,2,0
AOML/SKOGAFOSS,SKO313,340.305,6122003,7:19:50,62.83,-25.42,386.04,-9,378.97,1025.6,-9,8.38,7.66,35,373.53,378.02,-4.5,2,0
AOML/SKOGAFOSS,SKO313,340.31,6122003,7:25:49,62.819,-25.444,385.41,-9,378.99,1025.4,-9,8.4,7.68,35,372.83,377.97,-5.14,2,0
AOML/SKOGAFOSS,SKO313,340.314,6122003,7:31:47,62.807,-25.468,386.06,-9,379.02,1025.5,-9,8.4,7.68,35,373.49,378.04,-4.54,2,0
AOML/SKOGAFOSS,SKO313,340.318,6122003,7:37:46,62.796,-25.492,385.96,-9,379.04,1025.6,-9,8.39,7.67,35,373.44,378.1,-4.66,2,0
AOML/SKOGAFOSS,SKO313,340.322,6122003,7:43:45,62.784,-25.515,385.97,-9,379.07,1025.5,-9,8.41,7.69,35,373.4,378.09,-4.68,2,0
AOML/SKOGAFOSS,SKO313,340.326,6122003,7:49:44,62.773,-25.539,386.3,-9,379.1,1025.6,-9,8.4,7.68,35,373.76,378.15,-4.39,2,0
AOML/SKOGAFOSS,SKO313,340.33,6122003,7:55:43,62.761,-25.563,385.88,-9,379.12,1025.4,-9,8.4,7.68,35,373.29,378.1,-4.82,2,0
AOML/SKOGAFOSS,SKO313,340.335,6122003,8:01:41,62.75,-25.587,385.89,-9,379.15,1025.6,-9,8.41,7.69,35,373.36,378.2,-4.84,2,0
AOML/SKOGAFOSS,SKO313,340.339,6122003,8:07:40,62.739,-25.61,385.05,-9,379.18,1025.6,-9,8.4,7.68,35,372.55,378.23,-5.68,2,0
AOML/SKOGAFOSS,SKO313,340.343,6122003,8:13:39,62.727,-25.634,384.52,-9,379.2,1025.6,-9,8.39,7.67,35,372.05,378.26,-6.21,2,0
AOML/SKOGAFOSS,SKO313,340.347,6122003,8:19:38,62.716,-25.658,385.71,-9,379.23,1025.7,-9,8.46,7.74,35,373.19,378.3,-5.12,2,0
AOML/SKOGAFOSS,SKO313,340.36,6122003,8:38:55,62.658,-25.777,-9,379.32,379.33,1025.5,-9,8.49,7.77,35,-9,378.33,-9,2,0
AOML/SKOGAFOSS,SKO313,340.363,6122003,8:42:12,62.647,-25.801,-9,379.33,379.33,1025.5,-9,8.49,7.77,35,-9,378.34,-9,2,0
AOML/SKOGAFOSS,SKO313,340.365,6122003,8:45:29,62.636,-25.824,-9,379.33,379.33,1025.4,-9,8.45,7.73,35,-9,378.32,-9,2,0
AOML/SKOGAFOSS,SKO313,340.368,6122003,8:49:20,62.624,-25.848,384.15,-9,379.33,1025.5,-9,8.45,7.73,35,371.62,378.33,-6.71,2,0
AOML/SKOGAFOSS,SKO313,340.374,6122003,8:58:46,62.601,-25.896,383.74,-9,379.33,1025.8,-9,8.5,7.78,35,371.3,378.43,-7.13,2,0
AOML/SKOGAFOSS,SKO313,340.388,6122003,9:18:03,62.544,-26.014,-9,379.34,379.33,1025.4,-9,8.52,7.8,35,-9,378.31,-9,2,0
AOML/SKOGAFOSS,SKO313,340.39,6122003,9:21:20,62.533,-26.038,-9,379.33,379.33,1025.4,-9,8.53,7.81,35,-9,378.29,-9,2,0
AOML/SKOGAFOSS,SKO313,340.392,6122003,9:24:37,62.521,-26.062,-9,379.32,379.33,1025.2,-9,8.51,7.79,35,-9,378.21,-9,2,0
AOML/SKOGAFOSS,SKO313,340.395,6122003,9:28:28,62.51,-26.086,384.65,-9,379.36,1025.2,-9,8.53,7.81,35,371.94,378.23,-6.29,2,0
AOML/SKOGAFOSS,SKO313,340.401,6122003,9:37:54,62.487,-26.133,383.65,-9,379.39,1025.2,-9,8.63,7.9,35,370.91,378.24,-7.33,2,0
AOML/SKOGAFOSS,SKO313,340.421,6122003,10:05:57,62.43,-26.252,-9,379.51,379.52,1025.3,-9,8.6,7.87,35,-9,378.42,-9,2,0
AOML/SKOGAFOSS,SKO313,340.423,6122003,10:09:14,62.418,-26.276,-9,379.52,379.52,1025.2,-9,8.59,7.86,35,-9,378.39,-9,2,0
AOML/SKOGAFOSS,SKO313,340.425,6122003,10:12:31,62.407,-26.3,-9,379.52,379.52,1025.3,-9,8.58,7.85,35,-9,378.43,-9,2,0
AOML/SKOGAFOSS,SKO313,340.429,6122003,10:18:21,62.395,-26.323,381.24,-9,379.56,1025.3,-9,8.57,7.84,35,368.66,378.46,-9.8,2,0
AOML/SKOGAFOSS,SKO313,340.433,6122003,10:23:39,62.384,-26.347,381.04,-9,379.59,1025.1,-9,8.56,7.83,35,368.39,378.41,-10.02,2,0
AOML/SKOGAFOSS,SKO313,340.437,6122003,10:28:57,62.373,-26.371,381.37,-9,379.61,1025.3,-9,8.56,7.83,35,368.78,378.51,-9.73,2,0
AOML/SKOGAFOSS,SKO313,340.44,6122003,10:34:15,62.361,-26.395,381.69,-9,379.64,1025.1,-9,8.55,7.82,35,369.04,378.46,-9.43,2,0
AOML/SKOGAFOSS,SKO313,340.444,6122003,10:39:33,62.35,-26.419,381.49,-9,379.66,1025.3,-9,8.54,7.81,35,368.91,378.57,-9.65,2,0
AOML/SKOGAFOSS,SKO313,340.448,6122003,10:44:51,62.338,-26.442,381.92,-9,379.69,1025.1,-9,8.55,7.82,35,369.26,378.51,-9.26,2,0
AOML/SKOGAFOSS,SKO313,340.451,6122003,10:50:09,62.327,-26.466,383.96,-9,379.71,1025.1,-9,8.71,7.98,35,371.13,378.5,-7.36,2,0
AOML/SKOGAFOSS,SKO313,340.455,6122003,10:55:27,62.315,-26.49,384.83,-9,379.74,1025.2,-9,8.72,7.99,35,372,378.56,-6.56,2,0
AOML/SKOGAFOSS,SKO313,340.459,6122003,11:00:45,62.304,-26.514,384.19,-9,379.76,1025.1,-9,8.69,7.96,35,371.37,378.55,-7.18,2,0
AOML/SKOGAFOSS,SKO313,340.466,6122003,11:11:21,62.281,-26.561,383.57,-9,379.81,1025,-9,8.76,8.03,35,370.68,378.55,-7.86,2,0
AOML/SKOGAFOSS,SKO313,340.47,6122003,11:16:39,62.27,-26.585,383.15,-9,379.84,1024.9,-9,8.77,8.04,35,370.24,378.53,-8.3,2,0
AOML/SKOGAFOSS,SKO313,340.474,6122003,11:21:57,62.258,-26.609,385.3,-9,379.86,1025.1,-9,8.6,7.87,35,372.49,378.68,-6.19,2,0
AOML/SKOGAFOSS,SKO313,340.477,6122003,11:27:15,62.247,-26.632,384.98,-9,379.89,1025.1,-9,8.58,7.85,35,372.2,378.71,-6.51,2,0
AOML/SKOGAFOSS,SKO313,340.481,6122003,11:32:33,62.235,-26.656,385.1,-9,379.91,1024.9,-9,8.59,7.86,35,372.23,378.65,-6.43,2,0
AOML/SKOGAFOSS,SKO313,340.485,6122003,11:37:51,62.224,-26.68,385.1,-9,379.94,1025.3,-9,8.58,7.85,35,372.39,378.83,-6.44,2,0
AOML/SKOGAFOSS,SKO313,340.492,6122003,11:48:27,62.201,-26.728,385.66,-9,379.99,1025.1,-9,8.73,8,35,372.76,378.77,-6.01,2,0
AOML/SKOGAFOSS,SKO313,340.496,6122003,11:53:45,62.19,-26.751,386.84,-9,380.01,1025,-9,8.66,7.93,35,373.91,378.77,-4.87,2,0
AOML/SKOGAFOSS,SKO313,340.499,6122003,11:59:03,62.178,-26.775,383.74,-9,380.04,1024.9,-9,8.67,7.94,35,370.87,378.76,-7.89,2,0
AOML/SKOGAFOSS,SKO313,340.506,6122003,12:08:26,62.155,-26.823,382.8,-9,380.08,1025.1,-9,8.59,7.86,35,370.08,378.9,-8.82,2,0
AOML/SKOGAFOSS,SKO313,340.51,6122003,12:13:44,62.144,-26.846,383.45,-9,380.11,1025.2,-9,8.62,7.89,35,370.72,378.95,-8.23,2,0
AOML/SKOGAFOSS,SKO313,340.513,6122003,12:19:02,62.132,-26.87,382.28,-9,380.13,1025,-9,8.62,7.89,35,369.52,378.9,-9.38,2,0
AOML/SKOGAFOSS,SKO313,340.517,6122003,12:24:20,62.121,-26.894,382.93,-9,380.16,1025.1,-9,8.66,7.93,35,370.16,378.95,-8.79,2,0
AOML/SKOGAFOSS,SKO313,340.521,6122003,12:29:38,62.109,-26.918,381.97,-9,380.18,1025.1,-9,8.7,7.97,35,369.21,378.97,-9.76,2,0
AOML/SKOGAFOSS,SKO313,340.524,6122003,12:34:56,62.098,-26.941,382.19,-9,380.21,1024.7,-9,8.71,7.98,35,369.28,378.84,-9.57,2,0
AOML/SKOGAFOSS,SKO313,340.528,6122003,12:40:14,62.087,-26.965,382.09,-9,380.23,1025,-9,8.71,7.98,35,369.29,378.98,-9.69,2,0
AOML/SKOGAFOSS,SKO313,340.532,6122003,12:45:32,62.075,-26.989,382.1,-9,380.26,1024.7,-9,8.74,8.01,35,369.17,378.88,-9.72,2,0
AOML/SKOGAFOSS,SKO313,340.535,6122003,12:50:50,62.064,-27.013,382.64,-9,380.28,1024.8,-9,8.8,8.07,35,369.69,378.93,-9.24,2,0
AOML/SKOGAFOSS,SKO313,340.539,6122003,12:56:08,62.052,-27.037,384.58,-9,380.31,1024.8,-9,8.74,8.01,35,371.6,378.97,-7.37,2,0
AOML/SKOGAFOSS,SKO313,340.543,6122003,13:01:26,62.041,-27.06,384.26,-9,380.33,1024.9,-9,8.7,7.97,35,371.36,379.04,-7.69,2,0
AOML/SKOGAFOSS,SKO313,340.55,6122003,13:12:02,62.018,-27.108,385.13,-9,380.38,1025.1,-9,8.71,7.98,35,372.27,379.17,-6.9,2,0
AOML/SKOGAFOSS,SKO313,340.554,6122003,13:17:20,62.007,-27.132,386,-9,380.41,1025.1,-9,8.71,7.98,35,373.1,379.19,-6.09,2,0
AOML/SKOGAFOSS,SKO313,340.557,6122003,13:22:38,61.995,-27.155,384.29,-9,380.43,1024.9,-9,8.72,7.99,35,371.37,379.14,-7.76,2,0
AOML/SKOGAFOSS,SKO313,340.561,6122003,13:27:56,61.984,-27.179,385.16,-9,380.46,1024.7,-9,8.72,7.99,35,372.14,379.09,-6.95,2,0
AOML/SKOGAFOSS,SKO313,340.565,6122003,13:33:14,61.972,-27.203,382.7,-9,380.48,1024.7,-9,8.65,7.92,35,369.81,379.13,-9.33,2,0
AOML/SKOGAFOSS,SKO313,340.568,6122003,13:38:32,61.961,-27.227,382.61,-9,380.51,1024.6,-9,8.61,7.88,35,369.7,379.13,-9.43,2,0
AOML/SKOGAFOSS,SKO313,340.572,6122003,13:43:50,61.949,-27.25,382.51,-9,380.53,1024.5,-9,8.61,7.88,35,369.57,379.12,-9.55,2,0
AOML/SKOGAFOSS,SKO313,340.576,6122003,13:49:08,61.938,-27.274,382.62,-9,380.56,1024.5,-9,8.63,7.9,35,369.67,379.14,-9.47,2,0
AOML/SKOGAFOSS,SKO313,340.588,6122003,14:06:23,61.881,-27.393,-9,380.51,380.65,1024.2,-9,8.54,7.81,35,-9,379.01,-9,2,0
AOML/SKOGAFOSS,SKO313,340.59,6122003,14:09:40,61.869,-27.417,-9,380.62,380.65,1024.1,-9,8.52,7.8,35,-9,379.09,-9,2,0
AOML/SKOGAFOSS,SKO313,340.592,6122003,14:12:57,61.858,-27.441,-9,380.84,380.65,1024.1,-9,8.52,7.8,35,-9,379.31,-9,2,0
AOML/SKOGAFOSS,SKO313,340.596,6122003,14:18:47,61.846,-27.464,383.52,-9,380.64,1024.7,-9,8.55,7.82,35,370.65,379.32,-8.67,2,0
AOML/SKOGAFOSS,SKO313,340.6,6122003,14:24:05,61.835,-27.488,384.38,-9,380.64,1024.3,-9,8.54,7.81,35,371.35,379.17,-7.82,2,0
AOML/SKOGAFOSS,SKO313,340.604,6122003,14:29:23,61.824,-27.512,383.21,-9,380.63,1024,-9,8.6,7.87,35,370.07,379.04,-8.96,2,0
AOML/SKOGAFOSS,SKO313,340.607,6122003,14:34:41,61.812,-27.536,382.26,-9,380.63,1023.9,-9,8.6,7.87,35,369.11,378.99,-9.88,2,0
AOML/SKOGAFOSS,SKO313,340.611,6122003,14:39:59,61.801,-27.559,382.59,-9,380.62,1024.2,-9,8.66,7.93,35,369.5,379.08,-9.58,2,0
AOML/SKOGAFOSS,SKO313,340.615,6122003,14:45:17,61.789,-27.583,382.81,-9,380.62,1024.2,-9,8.66,7.93,35,369.72,379.08,-9.36,2,0
AOML/SKOGAFOSS,SKO313,340.618,6122003,14:50:35,61.778,-27.607,383.14,-9,380.61,1024.2,-9,8.65,7.92,35,370.04,379.08,-9.04,2,0
AOML/SKOGAFOSS,SKO313,340.622,6122003,14:55:53,61.766,-27.631,382.82,-9,380.61,1024.3,-9,8.68,7.95,35,369.76,379.1,-9.34,2,0
AOML/SKOGAFOSS,SKO313,340.626,6122003,15:01:11,61.755,-27.655,382.19,-9,380.6,1024.3,-9,8.7,7.97,35,369.13,379.09,-9.96,2,0
AOML/SKOGAFOSS,SKO313,340.63,6122003,15:06:29,61.743,-27.678,381.98,-9,380.6,1024.3,-9,8.67,7.94,35,368.95,379.09,-10.14,2,0
AOML/SKOGAFOSS,SKO313,340.633,6122003,15:11:47,61.732,-27.702,381.24,-9,380.59,1024.2,-9,8.68,7.95,35,368.19,379.05,-10.86,2,0
AOML/SKOGAFOSS,SKO313,340.641,6122003,15:22:23,61.709,-27.75,381.15,-9,380.58,1024.1,-9,8.67,7.94,35,368.07,379,-10.93,2,0
AOML/SKOGAFOSS,SKO313,340.644,6122003,15:27:41,61.698,-27.773,381.58,-9,380.58,1023.9,-9,8.7,7.97,35,368.4,378.92,-10.51,2,0
AOML/SKOGAFOSS,SKO313,340.648,6122003,15:32:59,61.686,-27.797,382.23,-9,380.57,1024.3,-9,8.69,7.96,35,369.18,379.06,-9.88,2,0
AOML/SKOGAFOSS,SKO313,340.652,6122003,15:38:18,61.675,-27.821,381.81,-9,380.57,1024.1,-9,8.68,7.95,35,368.71,378.98,-10.28,2,0
AOML/SKOGAFOSS,SKO313,340.655,6122003,15:43:36,61.663,-27.845,382.14,-9,380.56,1024.2,-9,8.68,7.95,35,369.06,379.02,-9.96,2,0
AOML/SKOGAFOSS,SKO313,340.659,6122003,15:48:54,61.652,-27.868,381.82,-9,380.55,1024.2,-9,8.66,7.93,35,368.77,379.02,-10.25,2,0
AOML/SKOGAFOSS,SKO313,340.663,6122003,15:54:12,61.641,-27.892,381.4,-9,380.55,1024,-9,8.67,7.94,35,368.28,378.93,-10.65,2,0
AOML/SKOGAFOSS,SKO313,340.666,6122003,15:59:30,61.629,-27.916,382.05,-9,380.54,1024,-9,8.68,7.95,35,368.91,378.93,-10.02,2,0
AOML/SKOGAFOSS,SKO313,340.673,6122003,16:08:52,61.606,-27.964,381.42,-9,380.53,1024.2,-9,8.66,7.93,35,368.38,379,-10.61,2,0
AOML/SKOGAFOSS,SKO313,340.677,6122003,16:14:10,61.595,-27.987,381.86,-9,380.53,1024.4,-9,8.65,7.92,35,368.88,379.07,-10.19,2,0
AOML/SKOGAFOSS,SKO313,340.68,6122003,16:19:28,61.583,-28.011,383.79,-9,380.52,1024.3,-9,8.67,7.94,35,370.7,379.02,-8.32,2,0
AOML/SKOGAFOSS,SKO313,340.684,6122003,16:24:46,61.572,-28.035,384.34,-9,380.52,1024.2,-9,8.66,7.93,35,371.2,378.98,-7.78,2,0
AOML/SKOGAFOSS,SKO313,340.688,6122003,16:30:04,61.56,-28.059,383.92,-9,380.51,1024.2,-9,8.65,7.92,35,370.8,378.98,-8.18,2,0
AOML/SKOGAFOSS,SKO313,340.691,6122003,16:35:22,61.549,-28.082,384.99,-9,380.51,1024.1,-9,8.62,7.89,35,371.82,378.94,-7.12,2,0
AOML/SKOGAFOSS,SKO313,340.695,6122003,16:40:41,61.538,-28.106,385.54,-9,380.5,1024,-9,8.62,7.89,35,372.31,378.9,-6.59,2,0
AOML/SKOGAFOSS,SKO313,340.699,6122003,16:45:59,61.526,-28.13,385.87,-9,380.5,1024.2,-9,8.63,7.9,35,372.69,378.97,-6.28,2,0
AOML/SKOGAFOSS,SKO313,340.702,6122003,16:51:17,61.515,-28.154,384.91,-9,380.49,1024.1,-9,8.66,7.93,35,371.71,378.92,-7.2,2,0
AOML/SKOGAFOSS,SKO313,340.706,6122003,16:56:35,61.503,-28.177,385.56,-9,380.49,1024.3,-9,8.64,7.91,35,372.43,378.99,-6.57,2,0
AOML/SKOGAFOSS,SKO313,340.71,6122003,17:01:53,61.492,-28.201,383.75,-9,380.48,1024.3,-9,8.67,7.94,35,370.66,378.98,-8.32,2,0
AOML/SKOGAFOSS,SKO313,340.713,6122003,17:07:11,61.48,-28.225,383.11,-9,380.48,1024.3,-9,8.67,7.94,35,370.04,378.97,-8.93,2,0
AOML/SKOGAFOSS,SKO313,340.717,6122003,17:12:29,61.469,-28.249,381.73,-9,380.47,1024.4,-9,8.66,7.93,35,368.75,379.01,-10.26,2,0